Wind_Speed
43 39 43 40 42 39 40 41 41 41 41 41 41 40 41 42 40 36 39 41 39 40 40 39 39 40 38 38 32 30 30 30 29 30 29 26 26 30 33 33 34 35 36
47 43 43 44 43 43 45 45 46 45 43 43 43 44 44 44 44 44 46 46 46 41 38 37 38 37 36 36 33 28 28 30 30 30 25 23 27 30 31 36 33 32 34
44 47 45 45 41 45 48 50 50 49 48 47 47 45 46 47 47 47 47 45 46 43 42 41 37 36 35 34 31 29 30 29 28 27 19 27 31 29 37 28 31 34 39
41 43 46 46 46 45 49 52 55 51 52 53 51 50 49 48 49 50 53 47 43 46 46 43 39 35 33 33 34 32 31 31 30 23 22 27 30 35 31 29 36 35 41
44 46 47 48 47 49 51 53 55 55 57 57 56 54 50 49 50 52 50 47 45 42 42 41 38 36 35 32 33 35 35 33 30 25 21 22 25 27 17 32 42 39 38
47 49 49 48 49 50 49 49 52 54 55 53 54 53 54 53 52 50 46 43 46 44 41 42 40 37 34 35 33 35 38 36 35 29 21 22 25 29 31 44 38 39 38
49 51 50 50 50 50 50 52 51 50 51 51 51 52 53 54 52 50 51 49 52 47 44 41 36 34 35 33 35 34 33 39 38 33 29 33 27 24 29 44 35 34 37
51 52 51 51 49 50 52 50 51 53 54 55 57 57 55 56 54 52 54 53 53 54 47 42 37 35 27 28 33 33 36 36 35 35 31 33 31 30 32 37 32 31 32
48 48 48 49 51 53 52 50 52 56 58 57 58 60 60 60 56 55 57 56 54 52 45 38 36 35 34 31 29 29 32 36 37 34 28 27 23 39 33 34 36 29 30
48 47 50 53 55 55 52 52 53 55 56 57 59 61 63 62 61 62 59 57 56 53 44 41 37 34 32 25 22 25 28 34 38 36 32 30 29 32 31 31 32 31 31
49 49 51 52 53 54 53 53 53 55 57 59 61 63 63 64 64 64 60 58 56 53 46 41 39 35 33 23 21 24 22 27 33 34 33 33 30 29 31 28 26 32 29
49 48 50 52 53 54 54 56 56 58 59 60 61 62 62 64 65 64 61 58 58 56 52 42 44 41 35 31 25 27 28 25 27 25 31 33 31 33 31 29 34 31 29
48 49 51 53 55 56 58 58 59 62 62 63 64 65 64 64 66 65 65 62 61 61 59 53 49 48 48 47 45 36 28 24 21 20 23 30 33 35 37 36 35 32 31
51 53 56 58 59 60 60 61 62 63 63 63 62 63 64 64 64 64 64 66 65 63 62 64 60 56 55 52 52 48 33 27 20 24 18 21 28 39 39 36 38 41 40
56 57 59 60 61 61 61 60 60 60 62 63 64 66 66 67 67 66 66 67 68 68 65 64 65 66 64 62 55 55 48 34 33 30 23 31 34 39 46 46 38 35 40
58 56 56 55 54 54 57 60 62 63 65 68 68 70 68 69 69 68 70 70 71 70 69 68 68 69 66 61 59 59 54 51 41 44 36 31 40 41 53 45 44 42 39
49 51 54 54 57 61 65 68 69 71 71 73 75 75 74 74 75 75 76 77 77 76 75 74 71 72 72 66 65 62 62 57 49 56 40 49 41 40 53 44 46 41 40
50 51 52 55 59 63 67 71 74 75 78 81 83 83 84 85 85 84 85 87 87 85 83 81 77 75 76 77 73 68 65 65 61 62 57 56 51 54 52 51 47 42 40
51 52 54 56 59 65 68 72 76 79 82 85 87 88 91 92 93 95 96 96 96 95 93 91 88 84 81 82 84 80 73 68 63 70 70 63 59 56 55 59 54 49 45
57 60 61 61 69 72 76 79 82 83 87 90 92 95 96 98 99 98 100 102 104 105 102 102 101 97 92 90 88 87 85 79 73 74 76 76 71 63 58 67 56 57 44
62 63 66 75 77 81 84 87 90 92 97 99 103 106 107 108 108 107 107 105 104 106 108 105 104 102 101 102 102 100 97 92 88 81 85 86 82 73 67 73 64 61 58
69 72 75 78 82 87 92 94 96 98 103 107 111 114 115 115 115 113 110 108 108 108 108 106 104 102 103 105 99 96 93 94 92 92 95 99 88 81 74 77 73 68 56
75 78 82 86 91 96 99 99 101 106 111 114 117 119 121 118 114 109 102 98 96 94 96 98 101 101 101 104 101 97 93 92 92 95 95 100 100 98 89 87 83 80 71
83 88 92 92 97 102 104 107 108 112 117 119 120 121 119 114 106 96 88 83 78 79 84 88 92 96 98 99 103 100 99 99 96 95 98 100 103 101 101 94 93 86 81
90 94 96 98 102 107 107 109 114 119 122 122 121 115 106 96 87 81 76 71 67 65 67 72 78 82 88 91 97 99 96 97 97 96 99 101 104 105 102 98 99 96 90
91 96 99 102 108 110 110 114 119 122 122 122 115 101 88 80 73 68 63 59 58 57 57 59 64 69 73 78 83 87 86 87 91 93 97 101 103 108 107 103 102 103 98
Wind_Direction
278 282 289 296 296 295 295 295 296 295 296 298 295 298 300 303 303 303 306 304 304 307 297 293 292 286 286 279 279 289 297 292 293 306 308 308 304 302 302 302 299 296 296
277 283 288 287 294 293 291 290 292 293 292 290 291 293 296 300 296 297 302 309 311 310 307 297 295 292 287 282 278 279 284 282 297 303 311 311 311 317 311 312 311 312 309
273 280 283 283 285 288 287 286 286 288 288 287 287 288 291 294 294 291 295 300 305 308 311 310 302 294 288 281 274 276 277 276 290 303 312 304 312 309 312 314 309 307 308
286 287 285 285 283 282 285 283 284 290 289 285 284 284 287 288 291 290 292 294 296 303 309 311 307 300 290 283 270 266 272 276 284 291 290 303 307 309 310 308 309 308 312
282 282 284 287 283 282 285 285 285 289 288 286 284 282 282 289 288 290 294 291 291 295 301 306 303 308 293 284 273 266 269 273 278 284 283 292 303 303 286 317 311 309 313
284 281 282 281 281 282 283 284 286 289 288 291 285 284 283 289 286 286 292 289 292 296 293 304 303 305 298 283 279 269 267 269 273 277 268 284 291 290 274 300 313 313 307
284 280 281 280 281 281 283 283 282 282 286 284 282 284 285 287 284 284 286 285 287 292 292 295 297 300 301 287 277 277 274 268 269 271 274 280 281 284 269 287 305 309 305
282 281 282 283 284 282 284 283 278 280 285 283 283 284 285 286 285 283 283 283 284 290 287 287 284 293 290 291 281 273 274 272 266 266 265 275 275 277 272 284 295 307 307
285 285 283 284 285 285 285 284 280 279 283 283 281 282 282 284 280 283 281 281 281 285 284 282 280 282 281 288 288 278 270 270 272 264 262 265 273 269 274 286 280 294 301
286 287 286 283 283 284 283 282 280 279 280 278 280 280 280 280 279 283 281 280 281 282 280 279 273 280 285 287 290 295 280 264 265 269 267 261 261 265 272 280 283 281 292
285 285 285 283 283 285 282 280 280 279 278 278 278 279 280 280 279 281 279 276 275 278 276 271 273 275 269 260 272 280 293 281 268 269 273 271 267 272 268 273 271 274 287
282 283 284 284 284 283 282 281 281 281 280 280 280 280 280 280 280 278 276 272 271 270 271 266 258 268 270 267 264 275 278 288 278 280 270 269 271 274 267 262 268 269 277
282 283 284 283 282 282 281 281 280 280 281 280 280 280 281 281 281 280 280 276 269 265 265 263 255 251 257 265 268 263 270 274 291 296 287 272 271 268 271 270 271 267 268
282 284 285 284 282 282 281 280 280 280 281 282 283 284 283 283 280 278 275 274 271 265 263 261 257 251 246 253 260 261 259 267 272 280 279 276 281 276 265 259 271 272 269
284 285 285 284 283 284 285 286 286 285 285 283 283 283 282 281 279 277 276 274 270 267 263 259 259 256 252 248 248 248 249 246 260 247 251 264 277 279 272 259 254 264 269
284 287 290 291 293 293 292 290 289 288 287 286 285 283 283 282 281 279 276 274 271 266 263 262 258 256 253 250 247 243 242 237 239 236 232 240 259 260 264 255 248 253 264
287 288 290 290 292 291 289 288 287 286 284 284 284 283 279 276 277 276 277 276 272 268 264 262 259 256 253 247 248 246 243 242 235 233 238 230 238 249 250 245 239 248 257
290 291 295 295 292 290 289 289 289 289 289 290 289 286 285 283 281 279 276 274 272 269 265 261 257 255 254 252 250 248 245 243 236 233 234 230 237 242 241 248 235 243 254
286 287 290 291 294 297 296 293 291 289 288 288 286 285 283 283 281 279 277 274 272 269 264 262 260 255 251 250 250 251 249 245 236 222 231 228 233 235 237 238 231 240 252
292 292 289 290 296 298 300 301 300 296 294 293 291 289 286 284 282 281 279 276 273 271 267 265 260 257 253 252 250 250 250 246 245 223 223 228 230 237 237 236 234 239 240
295 293 294 299 300 300 302 301 301 301 300 299 297 296 293 291 287 285 283 278 274 272 270 267 261 258 257 254 252 251 249 247 244 237 229 226 230 234 235 234 233 237 236
297 299 301 303 303 302 302 302 302 301 299 298 297 296 294 293 290 288 285 281 277 273 269 266 261 258 256 257 255 250 246 242 242 241 237 231 230 231 234 234 231 231 232
299 301 304 304 303 304 304 302 300 300 300 298 297 297 296 295 294 290 286 280 275 270 265 262 259 255 253 252 251 248 244 242 241 241 240 237 238 235 232 231 230 229 228
299 301 301 302 303 304 303 301 300 299 299 299 298 298 298 297 294 291 287 282 275 268 263 258 255 253 251 249 248 246 245 244 241 240 238 235 237 238 238 227 228 227 229
302 299 299 300 302 304 303 301 301 301 301 301 300 301 301 296 293 291 286 283 278 270 263 258 255 252 251 249 247 247 246 243 240 235 237 234 233 234 237 232 226 226 227
299 297 297 300 302 304 304 303 302 303 303 303 304 304 301 297 294 291 289 285 279 272 266 260 255 252 250 248 246 246 245 241 237 232 230 233 231 231 233 233 228 226 225
Height
10848 10853 10848 10852 10849 10842 10839 10837 10837 10837 10836 10833 10831 10829 10827 10824 10822 10821 10819 10817 10815 10812 10809 10807 10806 10807 10807 10807 10806 10805 10804 10803 10804 10802 10799 10798 10795 10791 10789 10787 10784 10782 10780
10845 10844 10844 10849 10844 10837 10833 10831 10831 10831 10829 10827 10825 10823 10821 10820 10817 10815 10812 10809 10807 10805 10802 10800 10799 10800 10799 10799 10800 10800 10800 10800 10800 10797 10796 10792 10789 10786 10781 10779 10776 10774 10772
10844 10844 10846 10843 10836 10829 10826 10824 10823 10823 10822 10820 10818 10817 10815 10813 10811 10808 10805 10803 10800 10798 10797 10795 10793 10793 10793 10792 10792 10794 10794 10794 10793 10792 10790 10785 10783 10780 10775 10774 10771 10768 10766
10843 10839 10836 10832 10828 10823 10820 10817 10816 10816 10814 10812 10810 10809 10808 10806 10804 10800 10798 10797 10794 10792 10790 10788 10787 10787 10786 10784 10786 10786 10786 10787 10786 10787 10782 10780 10778 10774 10772 10772 10769 10766 10761
10834 10829 10826 10822 10818 10816 10814 10812 10810 10807 10803 10801 10801 10800 10799 10798 10796 10792 10790 10789 10788 10787 10785 10784 10783 10781 10779 10778 10780 10780 10779 10779 10778 10781 10777 10777 10774 10772 10771 10770 10765 10761 10757
10819 10818 10815 10813 10811 10810 10808 10805 10802 10799 10795 10792 10791 10790 10789 10788 10787 10784 10782 10782 10781 10781 10781 10779 10778 10777 10775 10772 10774 10773 10772 10772 10772 10775 10772 10769 10770 10769 10767 10764 10759 10755 10752
10810 10808 10807 10805 10804 10802 10800 10797 10794 10790 10787 10784 10782 10781 10780 10778 10777 10776 10775 10774 10773 10775 10775 10775 10772 10770 10769 10766 10767 10767 10764 10764 10765 10768 10767 10762 10764 10765 10763 10759 10757 10752 10749
10801 10799 10797 10795 10794 10792 10789 10787 10785 10782 10779 10777 10774 10771 10769 10767 10767 10766 10765 10766 10766 10766 10766 10766 10764 10763 10762 10760 10761 10760 10757 10755 10755 10758 10761 10757 10756 10757 10756 10754 10754 10751 10747
10788 10787 10786 10785 10783 10781 10780 10777 10775 10772 10771 10767 10764 10762 10760 10759 10757 10756 10756 10756 10757 10756 10757 10757 10756 10755 10755 10755 10753 10753 10751 10748 10746 10750 10754 10754 10752 10751 10752 10751 10748 10747 10744
10778 10777 10776 10774 10772 10769 10769 10765 10763 10760 10759 10756 10754 10750 10749 10748 10746 10745 10746 10745 10745 10746 10748 10748 10747 10747 10751 10750 10748 10746 10743 10740 10738 10739 10744 10747 10748 10744 10745 10743 10743 10742 10740
10769 10767 10765 10763 10761 10758 10757 10754 10752 10750 10747 10745 10742 10739 10737 10735 10734 10733 10733 10734 10735 10735 10736 10738 10738 10740 10741 10741 10740 10737 10736 10735 10734 10734 10734 10735 10739 10739 10739 10736 10735 10735 10735
10758 10757 10755 10753 10750 10748 10746 10744 10741 10738 10736 10733 10731 10727 10725 10723 10720 10720 10720 10721 10722 10723 10723 10728 10729 10730 10732 10731 10732 10730 10729 10730 10729 10730 10730 10728 10731 10731 10732 10730 10730 10729 10728
10748 10746 10744 10742 10739 10736 10734 10731 10729 10725 10723 10721 10717 10714 10713 10711 10708 10706 10706 10707 10710 10710 10712 10715 10717 10719 10720 10720 10719 10721 10723 10724 10726 10726 10726 10725 10724 10724 10725 10725 10722 10721 10721
10736 10735 10732 10730 10727 10723 10721 10718 10715 10712 10710 10709 10705 10701 10700 10698 10696 10693 10693 10692 10693 10696 10698 10699 10701 10704 10708 10709 10709 10710 10715 10718 10721 10722 10724 10721 10718 10719 10718 10720 10718 10716 10715
10725 10722 10718 10716 10713 10710 10707 10703 10700 10697 10695 10693 10691 10687 10686 10683 10680 10679 10678 10677 10678 10681 10682 10683 10684 10687 10691 10694 10696 10698 10704 10707 10711 10711 10711 10716 10716 10711 10714 10713 10712 10709 10708
10713 10710 10707 10704 10702 10698 10694 10690 10687 10684 10681 10678 10675 10672 10671 10668 10665 10662 10660 10659 10659 10661 10663 10666 10668 10668 10673 10677 10680 10684 10689 10692 10693 10690 10691 10705 10703 10700 10703 10705 10701 10700 10700
10702 10699 10696 10692 10689 10686 10682 10678 10675 10670 10666 10662 10659 10655 10655 10654 10649 10647 10644 10641 10639 10640 10642 10647 10648 10650 10654 10660 10661 10665 10672 10679 10684 10674 10672 10676 10683 10682 10690 10693 10693 10694 10691
10691 10688 10685 10681 10678 10674 10669 10665 10658 10653 10648 10643 10638 10635 10633 10630 10628 10626 10622 10618 10616 10618 10618 10621 10625 10631 10633 10638 10642 10644 10649 10660 10669 10669 10662 10662 10663 10670 10676 10680 10683 10683 10683
10678 10674 10671 10668 10664 10659 10654 10649 10643 10637 10630 10624 10618 10613 10607 10607 10604 10600 10596 10594 10590 10591 10593 10596 10601 10606 10609 10612 10617 10625 10630 10636 10647 10652 10652 10650 10651 10655 10660 10663 10668 10669 10670
10665 10661 10657 10654 10648 10642 10637 10631 10624 10616 10609 10602 10595 10589 10584 10578 10575 10573 10569 10565 10562 10558 10561 10564 10571 10574 10582 10585 10591 10599 10606 10613 10620 10631 10633 10636 10639 10642 10644 10646 10651 10655 10659
10650 10647 10643 10639 10631 10624 10618 10610 10602 10592 10583 10573 10564 10556 10550 10543 10538 10536 10534 10532 10529 10525 10523 10526 10531 10540 10544 10550 10559 10567 10579 10589 10592 10601 10605 10612 10620 10623 10631 10631 10635 10641 10646
10633 10629 10625 10621 10612 10603 10597 10588 10579 10570 10558 10548 10538 10526 10515 10506 10499 10495 10492 10488 10486 10484 10484 10485 10489 10499 10508 10510 10522 10533 10546 10556 10566 10570 10578 10586 10597 10606 10614 10615 10619 10626 10633
10612 10608 10604 10600 10591 10582 10575 10565 10555 10543 10530 10520 10508 10495 10480 10467 10457 10451 10447 10442 10439 10437 10439 10442 10447 10456 10469 10474 10485 10497 10512 10525 10540 10545 10552 10560 10569 10581 10589 10598 10605 10609 10615
10596 10589 10584 10580 10568 10561 10554 10541 10529 10516 10504 10491 10478 10463 10448 10434 10419 10411 10405 10401 10400 10401 10400 10403 10409 10417 10427 10440 10445 10461 10477 10493 10506 10518 10526 10535 10545 10556 10567 10577 10586 10590 10598
10580 10569 10562 10558 10548 10538 10529 10515 10501 10485 10472 10459 10444 10430 10416 10399 10390 10382 10375 10372 10370 10370 10371 10374 10378 10386 10393 10403 10413 10423 10441 10455 10469 10488 10498 10508 10519 10532 10542 10555 10565 10574 10578
10562 10548 10542 10536 10524 10512 10501 10488 10471 10455 10440 10425 10410 10396 10384 10371 10365 10358 10353 10349 10346 10345 10347 10350 10355 10360 10368 10374 10384 10394 10407 10421 10436 10454 10472 10480 10494 10503 10517 10529 10539 10551 10559